Back to catalog

USA 113

AliveMilitaryGEO
NORAD 23628·PAYLOAD·🇺🇸 United States

Launched Jul 31, 1995 from Cape Canaveral Space Force Station

Loading…

TLE

FreshSource: Space-Track

Epoch: Sep 14, 2026, 04:58 UTC

1 23628U 95038A   26257.20730399 -.00000164  00000-0  00000-0 0  9993
2 23628  13.5038  15.0511 0004385 235.5194 119.4943  0.98665239 33639

Track USA 113 in real time with AllMySat

Download on the App Store